Regional Weather Roundup
Issued by NWS Little Rock, AR

Home | Current Version | Previous Version | Text Only | Print | Product List | Glossary Off
Versions: 1 2 3 4 5 6 7 8 9 10 11 12 13 14 15 16 17 18 19 20 21 22 23 24 25 26 27 28 29 30 31

000
ASUS44 KLZK 062005
RWRLZK

WEATHER ROUNDUP FOR ARKANSAS
NATIONAL WEATHER SERVICE LITTLE ROCK AR
200 PM CST TUE DEC 06 2016

NOTE: "FAIR" INDICATES FEW OR NO CLOUDS BELOW 12,000 FEET WITH NO
SIGNIFICANT WEATHER AND/OR OBSTRUCTIONS TO VISIBILITY.

ARZ001-003-010-029-062100-
NORTHWEST ARKANSAS

CITY           SKY/WX    TMP DP  RH WIND       PRES   REMARKS
FAYETTEVILLE   CLOUDY    43  33  68 N8        30.00S
FORT SMITH     CLOUDY    48  37  65 N13       30.00S
HARRISON       CLOUDY    42  35  76 N8        29.98F
BENTONVILLE    CLOUDY    43  28  56 N9        30.01F
ROGERS         CLOUDY    41  32  70 N10       30.01S
SILOAM SPGS    PTSUNNY   43  28  56 N14       30.00F
HIGHFILL       CLOUDY    44  33  65 N10       30.00S
SPRINGDALE     PTSUNNY   43  32  65 N8        30.01F
$$

ARZ004-005-016-062100-
NORTH CENTRAL ARKANSAS

CITY           SKY/WX    TMP DP  RH WIND       PRES   REMARKS
BATESVILLE     SUNNY     52  39  62 NW10G16   29.95R
FLIPPIN        CLOUDY    45  34  65 N6        29.96S
MTN HOME       CLOUDY    42  37  82 N6        29.97S
$$

ARZ040-041-062100-
WEST CENTRAL ARKANSAS

CITY           SKY/WX    TMP DP  RH WIND       PRES   REMARKS
MENA           NOT AVBL
MOUNT IDA      CLOUDY    53  40  61 VRB5      29.92F
$$

ARZ009-017-025-026-028-062100-
NORTHEAST ARKANSAS

CITY           SKY/WX    TMP DP  RH WIND       PRES   REMARKS
JONESBORO      SUNNY     54  41  61 NW10G18   29.91S
NEWPORT        SUNNY     56  40  55 N15       29.93R
WALNUT RIDGE   SUNNY     55  37  50 NW16      29.92R
BLYTHEVILLE    PTSUNNY   54  45  71 N9        29.92R
$$

ARZ022-023-033-042-044-062100-
CENTRAL ARKANSAS

CITY           SKY/WX    TMP DP  RH WIND       PRES   REMARKS
LITTLE ROCK    MOSUNNY   54  42  64 NW16G24   29.95R
N LITTLE ROCK    N/A     53  42  68 N8        29.97R
SEARCY         SUNNY     55  41  59 NW9G16    29.95R
HOT SPRINGS    CLOUDY    53  43  68 VRB3      29.95F
RUSSELLVILLE   PTSUNNY   54  39  57 N9        29.96R
$$

ARZ036-062100-
EAST ARKANSAS

CITY           SKY/WX    TMP DP  RH WIND       PRES   REMARKS
WEST MEMPHIS   CLOUDY    50  42  74 N6        29.92R
$$

ARZ050-053-066-070-073-062100-
SOUTHWEST ARKANSAS

CITY           SKY/WX    TMP DP  RH WIND       PRES   REMARKS
ARKADELPHIA    CLOUDY    52  45  77 N6        29.96R
CAMDEN         CLOUDY    52  45  76 N3        29.96R
TEXARKANA      CLOUDY    53  46  77 N6        29.95R
EL DORADO      CLOUDY    52  47  83 VRB5      29.95R
DE QUEEN       CLOUDY    55  43  63 VRB7      29.94R
$$

ARZ056-057-069-062100-
SOUTHEAST ARKANSAS

CITY           SKY/WX    TMP DP  RH WIND       PRES   REMARKS
PINE BLUFF     PTSUNNY   53  42  66 NW8       29.95R
STUTTGART      PTSUNNY   55  43  62 N10       29.93S
MONTICELLO     CLOUDY    52  44  74 VRB5      29.94R

$$






USA.gov is the U.S. government's official web portal to all federal, state and local government web resources and services.